STARLINK-2431, 47839

Orbit data source: Space-Track

STARLINK-2431, 47839 is a payload satellite owned by SpaceX/Seattle (US) in LEO that was launched on Thu, 11 Mar 2021 UTC via an FALCON 9 launch vehicle from the Air Force Eastern Test Range (AFETR). Payload-class satellites include a variety of spacecraft equipped with specific instruments for various scientific and technological missions. These include communications satellites like Starlink; space stations such as the ISS; scientific satellites like the Hubble; Earth observation satellites from companies like Planet Labs, Umbra, and HawkEye 360; GPS; miniature CubeSats for education and research; and military/defense satellites.

Loading next visibility...
Identifier
47839, 2021-018BE
Orbit
LEO
Country
Flag of USUS
Related business
Manufacturer
SpaceX/Seattle
Mission
Operational Commercial Communications
Bus & Motor
STARLINK, Unknown motor
Mass
260 kg wet, ~248 kg dry
Launch date (UTC)
2021-03-11 (5 years ago)
Launch vehicle
FALCON 9
Launch site
Air Force Eastern Test Range (AFETR)
Object type
Payload
Rocket body
Debris
Shape & HBR
Box + 1 Pan, 10.1 m
Radar Cross Section
13.562 m², Large (>1 m²)

Expand to show TLE details & history
Last TLE update: 3 days ago

TLE from 3 days ago
0 STARLINK-2431
1 47839U 21018BE  26170.54655653  .00006660  00000-0  22610-3 0  9990
2 47839  53.1586 103.1053 0001338  93.3761 266.7393 15.31714097292702
Epoch: 2026-06-19T13:07Z
TLE epoch observation values (Epoch: 2026-06-19T13:07:02.484Z)
Latitude
-0.00005°
Longitude
-1.42906°
Altitude
471.65 km
Speed
7.631 km/s
True Right ascension
06h 52m 25s
True Declination
0° 00' 00"
Sunlit
Object was in daylight at epoch
Visualization orbit readout
Latitude
Unknown
Longitude
Unknown
Altitude
Unknown
Speed
Unknown
Apparent Right ascension
Unknown
Apparent Declination
Unknown
Sunlit
N/A
Visualization observer readout
Local Sidereal Time
21:42:10
Azimuth
Unknown
Elevation
Unknown
Doppler factor
Unknown
Orbital elements
Apogee altitude
471.871 km
Perigee altitude
470.038 km
Semi-major axis
6,849.092 km
Eccentricity
0.00013
Inclination
53.1586°
RAAN
103.1053°
Arg. of periapsis
93.3761°
True anomaly
266.72399°
Mean anomaly
266.7393°
Eccentric anomaly
266.73165°
Mean motion
3.82907 °/min
Orbital period
94.02 mins
BSTAR
0.0002261
Loading maneuver chart data...
Computing Atmospheric mass density...
Loading historical data...
Loading historical data...
Loading historical data...
Loading historical data...
Loading historical data...
Loading historical data...
Loading historical data...

Documentation

Showing up to 5 results
|